Flag for Russia Weather past 2 weeks in Murmansk, Russia

Now
52 °F

Sprinkles. Scattered clouds.


Feels Like: 51 °F
Forecast: 45 / 51 °F
Wind: 3 mph from South

Location: Murmansk Airport

Current Time: Jul 3, 2015 at 6:18:27 AM

Latest Report: Jul 3, 2015 at 6:00 AM


Visibility: N/A

Pressure: 29.95 "Hg

Humidity: 67%

Dew point: 41 °F

Location of MurmanskLocation

Historic Weather in Murmansk — Graph

°F

Murmansk temperature yesterday

Maximum temperature yesterday: 59 °F (at 3:00 PM)
Minimum temperature yesterday: 34 °F (at 2:00 AM)
Average temperature yesterday: 48 °F

Past Weeks' High & Low Weather Summary

 TemperatureHumidityPressure
High72 °F (Jun 22, 3:00 PM)94% (Jun 25, 5:30 AM)30.27 "Hg (Jun 25, 5:30 AM)
Low34 °F (Jul 2, 2:00 AM)20% (Jun 23, 3:30 PM)29.53 "Hg (Jun 26, 3:30 AM)
Average53 °F64%29.90 "Hg
* Reported Jun 18 5:00 AM — Jul 3 5:00 AM, Murmansk, Weather by CustomWeather, © 2015

Note: Actual official high and low records may vary slightly from our data, if they occured in-between our weather recording intervals... More about our weather records

Advertising

Murmansk weather history for previous 24 hours

 ConditionsComfort  
Time TempWeatherWind HumidityBarometerVisibility
5:00 AM
Fri, Jul 3
52 °FScattered clouds.6 mph67%29.98 "HgN/A
4:30 AM52 °FScattered clouds.3 mph67%29.98 "HgN/A
4:00 AM52 °FScattered clouds.6 mph67%30.01 "HgN/A
3:30 AM52 °FScattered clouds.6 mph67%30.01 "HgN/A
3:00 AM52 °FScattered clouds.1 mph67%30.04 "HgN/A
2:30 AM50 °FScattered clouds.3 mph71%30.04 "HgN/A
2:00 AM50 °FPassing clouds.1 mph71%30.07 "HgN/A
1:30 AM50 °FPassing clouds.6 mph71%30.07 "HgN/A
1:00 AM50 °FPassing clouds.8 mph71%30.07 "HgN/A
12:00 AM50 °FScattered clouds.6 mph71%30.09 "HgN/A
11:30 PM
Thu, Jul 2
50 °FScattered clouds.6 mph71%30.09 "HgN/A
11:00 PM50 °FScattered clouds.6 mph76%30.12 "HgN/A
10:30 PM50 °FSprinkles. Scattered clouds.3 mph82%30.12 "HgN/A
10:00 PM50 °FSprinkles. Scattered clouds.3 mph76%30.12 "HgN/A
9:30 PM50 °FSprinkles. Scattered clouds.3 mph76%30.15 "HgN/A
9:00 PM50 °FSprinkles. Scattered clouds.3 mph76%30.15 "HgN/A
8:30 PM50 °FSprinkles. Scattered clouds.1 mph82%30.15 "HgN/A
8:00 PM52 °FSprinkles. Scattered clouds.1 mph72%30.15 "HgN/A
7:30 PM52 °FSprinkles. Partly sunny.No wind67%30.18 "HgN/A
7:00 PM52 °FSprinkles. Partly sunny.1 mph72%30.18 "HgN/A
6:30 PM54 °FSprinkles. Partly sunny.1 mph58%30.18 "HgN/A
6:00 PM54 °FScattered clouds.1 mph54%30.18 "HgN/A
5:30 PM54 °FPartly sunny.3 mph47%30.18 "HgN/A
5:00 PM55 °FPartly sunny.3 mph41%30.21 "HgN/A
4:30 PM55 °FPartly sunny.6 mph38%30.21 "HgN/A
4:00 PM57 °FPartly sunny.1 mph39%30.21 "HgN/A
3:30 PM57 °FScattered clouds.1 mph36%30.21 "HgN/A
3:00 PM59 °FPassing clouds.3 mph31%30.21 "HgN/A
2:30 PM57 °FPassing clouds.3 mph36%30.21 "HgN/A
2:00 PM55 °FPassing clouds.1 mph36%30.21 "HgN/A
1:30 PM54 °FPassing clouds.6 mph38%30.24 "HgN/A
1:00 PM54 °FPassing clouds.6 mph41%30.24 "HgN/A
12:30 PM54 °FPassing clouds.3 mph38%30.24 "HgN/A
12:00 PM54 °FPassing clouds.3 mph41%30.24 "HgN/A
11:30 AM52 °FScattered clouds.3 mph41%30.24 "HgN/A
11:00 AM50 °FScattered clouds.3 mph47%30.27 "HgN/A
10:30 AM50 °FScattered clouds.3 mph47%30.27 "HgN/A
10:00 AM50 °FScattered clouds.3 mph43%30.27 "HgN/A
9:30 AM48 °FScattered clouds.3 mph54%30.27 "HgN/A
9:00 AM48 °FScattered clouds.1 mph54%30.27 "HgN/A
8:30 AM48 °FScattered clouds.1 mph58%30.27 "HgN/A
8:00 AM46 °FScattered clouds.3 mph62%30.27 "HgN/A
7:30 AM45 °FScattered clouds.1 mph71%30.27 "HgN/A
7:00 AM46 °FScattered clouds.1 mph66%30.27 "HgN/A
6:30 AM46 °FScattered clouds.1 mph71%30.27 "HgN/A
6:00 AM45 °FPassing clouds.1 mph76%30.27 "HgN/A
Weather by CustomWeather, © 2015

See weather overviewHow to use our weather pages